星链-36681(STARLINK-36681)

导读

STARLINK-36681(NORAD编号68720)是美国太空探索技术公司(SpaceX)星链(Starlink)低轨卫星互联网星座中的一员,属于星链项目批量部署的运营卫星之一。星链项目计划在近地轨道构建由约1.2万颗卫星组成的卫星互联网网络,为全球用户提供高带宽低延迟的互联网接入服务,目前已进入规模化运营阶段,服务覆盖全球多个国家和地区,该卫星承担着星座组网通信的任务,服务于民商用领域的互联网接入需求。

Basic Information
目录编号:
68720
目录名称:
STARLINK-36681
国际标识:
2026-081X
轨道中心:
EARTH
卫星名称:
星链-36681
卫星全名:
星链-36681(STARLINK-36681)
卫星状态:
在轨 (已飞行143 天)
发射日期:
2026-04-14 UTC
国别 :
美国 (US)
星等 :
--
Orbit Information
数据来源 国际轨道数据
星历时间: 2026-09-04T10:24:16+0800
6小时前
查看轨道信息
半长轴: 6840.839km
偏心率: 0.0001555
轨道倾角: 53.158°
近地点辐角 86.839°
升交点赤经 282.172°
平近点角 273.279°
近地点: 461.638km
远地点: 463.766km
周期: 93.848分钟
每日圈数: 15.344006
Detailed Information
固有亮度:
5
最大亮度:
2.5
卫星平台:
Starlink V1.0
覆盖范围:
全球
运营商:
太空探索技术公司
运营商所在国:
美国
制造商(研发单位):
太空探索技术公司
制造商所在国:
美国
使用方式:
暂无
Satellite Introduction
Starlink 计划是 SpaceX 推出的全球卫星互联网项目,通过发射低轨道卫星,为全球尤其是偏远地区提供高速、低延迟的互联网服务。自 2019 年起,Starlink 已部署数千颗卫星,旨在缩小全球数字鸿沟,推动互联网普及。该项目还为军事、航空等行业提供通信支持,带来广泛经济效益。
2D Orbit Map
3D Orbit Map
Orbit Altitude Analysis Chart
Orbit Inclination Analysis Chart
Orbit Comprehensive Analysis Chart
View Comprehensive Chart
Conjunction Data List
Event ID Objects TCA Miss Dist (km) Collision Risk Probability Collision Risk Index (CRI) Action
CDM_260904-213605-899806-872021
2026-09-04T
21:36:48+0000
0.556 km
远距离
7.936641E-5 中风险 0.73
CDM_260905-043805-899806-872021
2026-09-05T
04:38:52+0000
0.597 km
远距离
6.474802E-5 中风险 0.71
CDM_260905-030505-899806-872021
2026-09-05T
03:05:04+0000
2.674 km
极远距离
8.263727E-7 极低风险 0.33
CDM_260904-231005-899806-872021
2026-09-04T
23:10:36+0000
2.795 km
极远距离
7.793708E-7 极低风险 0.33
CDM_260905-131205-284206-872021
2026-09-05T
13:12:51+0000
2.744 km
极远距离
5.586952E-7 极低风险 0.3